This demonstration page uses our WeatherBlox Daily Observations layout. Learn more.

Left ArrowRight Arrow

Hourly Observations for December 10, 2021

Temp ( °F °C ) Dew Point ( °F °C ) Humidity (%) Winds ( mph kmh ) Pressure ( in mb ) Visibility ( mi km ) Precip ( " mm )
12:56 am 00:56 Clear 35 1.7 27 -2.8 72 72 ENE 14 22 29.72 1007 10 16 0.00 0.00
1:56 am 01:56 Clear 36 2.2 27 -2.8 70 70 ENE 15 24 29.69 1005 10 16 0.00 0.00
2:56 am 02:56 Clear 36 2.2 26 -3.3 67 67 ENE 23 37 29.67 1005 10 16 0.00 0.00
3:56 am 03:56 Clear 35 1.7 26 -3.3 70 70 E 21 33 29.65 1004 10 16 0.00 0.00
4:56 am 04:56 Clear 34 1.1 25 -3.9 70 70 ENE 21 33 29.62 1003 10 16 0.00 0.00
5:56 am 05:56 Mostly Cloudy 34 1.1 25 -3.9 70 70 ENE 22 35 29.60 1002 10 16 0.00 0.00
6:56 am 06:56 Cloudy 34 1.1 24 -4.4 67 67 ENE 21 33 29.60 1002 10 16 0.00 0.00
7:56 am 07:56 Mostly Cloudy 33 0.6 24 -4.4 70 70 ENE 20 31 29.59 1002 10 16 0.00 0.00
8:56 am 08:56 Mostly Cloudy 33 0.6 24 -4.4 70 70 ENE 22 35 29.56 1001 10 16 0.00 0.00
9:56 am 09:56 Cloudy 33 0.6 24 -4.4 70 70 NE 17 28 29.59 1002 10 16 0.00 0.00
10:56 am 10:56 Cloudy 33 0.6 23 -5 66 66 NNE 20 31 29.60 1002 10 16 0.00 0.00
11:56 am 11:56 Cloudy 32 0 23 -5 69 69 NNE 21 33 29.57 1001 10 16 0.00 0.00
12:56 pm 12:56 Cloudy 32 0 22 -5.6 66 66 N 24 39 29.55 1001 10 16 0.00 0.00
1:56 pm 13:56 Cloudy 31 -0.6 20 -6.7 64 64 N 24 39 29.55 1001 10 16 0.00 0.00
2:56 pm 14:56 Windy with Snow Likely 28 -2.2 24 -4.4 85 85 N 28 44 29.59 1002 2 3 0.00 0.00
3:35 pm 15:35 Cloudy with Light Snow 28 -2 25 -4 86 86 N 18 30 29.66 1004 1 2 0.00 0.00
3:39 pm 15:39 Cloudy with Light Snow 28 -2 25 -4 86 86 N 16 26 29.67 1005 1 2 0.00 0.00
3:43 pm 15:43 Cloudy with Light Snow 28 -2 25 -4 86 86 N 15 24 29.67 1005 1 1 0.00 0.00
3:56 pm 15:56 Cloudy with Light Snow 28 -2.2 25 -3.9 88 88 N 16 26 29.60 1002 1 2 0.00 0.00
4:12 pm 16:12 Cloudy with Light Snow 28 -2 27 -3 93 93 N 13 20 29.69 1005 2 2 0.00 0.00
4:40 pm 16:40 Cloudy with Light Snow 28 -2 27 -3 93 93 NW 12 19 29.74 1007 1 2 0.00 0.00
4:47 pm 16:47 Cloudy with Light Snow 28 -2 27 -3 93 93 NNW 13 20 29.75 1007 1 2 0.00 0.00
4:49 pm 16:49 Cloudy with Light Snow 28 -2 27 -3 93 93 NNW 13 20 29.75 1007 1 2 0.00 0.00
4:56 pm 16:56 Cloudy with Light Snow 28 -2.2 26 -3.3 92 92 NNW 14 22 29.69 1005 1 2 0.00 0.00
5:07 pm 17:07 Cloudy with Light Snow 28 -2 27 -3 93 93 NNW 13 20 29.77 1008 1 1 0.00 0.00
5:19 pm 17:19 Cloudy with Snow 28 -2 27 -3 93 93 NNW 13 20 29.78 1008 1 1 0.00 0.00
5:35 pm 17:35 Windy with Snow Likely 28 -2 27 -3 93 93 NNW 21 33 29.78 1008 1 2 0.01 0.25
5:46 pm 17:46 Windy with Snow Likely 28 -2 27 -3 93 93 N 20 31 29.78 1008 1 2 0.01 0.25
5:56 pm 17:56 Cloudy with Light Snow 29 -1.7 27 -2.8 92 92 NNW 15 24 29.73 1007 1 2 0.01 0.25
6:11 pm 18:11 Windy with Snow Likely 28 -2 27 -3 93 93 NNW 24 39 29.80 1009 1 2 0.00 0.00
6:27 pm 18:27 Windy with Snow Likely 28 -2 27 -3 93 93 NNW 24 39 29.81 1009 1 2 0.01 0.25
6:38 pm 18:38 Windy with Snow Likely 28 -2 27 -3 93 93 NNW 20 31 29.82 1010 2 3 0.01 0.25
6:43 pm 18:43 Windy with Snow Likely 28 -2 27 -3 93 93 NNW 20 31 29.82 1010 3 5 0.01 0.25
6:49 pm 18:49 Windy with Snow Likely 28 -2 27 -3 93 93 NNW 20 31 29.83 1010 3 4 0.01 0.25
6:52 pm 18:52 Windy with Snow Likely 28 -2 27 -3 93 93 NNW 20 31 29.83 1010 3 5 0.01 0.25
6:56 pm 18:56 Windy with Snow Likely 28 -2.2 26 -3.3 92 92 NNW 22 35 29.77 1008 3 5 0.01 0.25
7:16 pm 19:16 Windy with Snow Likely 28 -2 27 -3 93 93 NNW 22 35 29.84 1010 3 5 0.00 0.00
7:29 pm 19:29 Cloudy with Light Snow 27 -3 25 -4 93 93 NNW 18 30 29.86 1011 3 5 0.00 0.00
7:33 pm 19:33 Windy with Snow Likely 27 -3 25 -4 93 93 NNW 20 31 29.86 1011 4 6 0.00 0.00
7:45 pm 19:45 Cloudy with Light Snow 27 -3 25 -4 93 93 NNW 18 30 29.86 1011 5 8 0.00 0.00
7:56 pm 19:56 Cloudy with Light Snow 27 -2.8 25 -3.9 92 92 NNW 18 30 29.81 1010 5 8 0.00 0.00
8:56 pm 20:56 Windy with Snow Likely 27 -2.8 24 -4.4 89 89 NNW 22 35 29.81 1010 10 16 0.00 0.00
9:20 pm 21:20 Partly Cloudy with Scattered Snow Showers 27 -3 23 -5 86 86 NNW 18 30 29.88 1012 10 16 0.00 0.00
9:56 pm 21:56 Mostly Clear 25 -3.9 23 -5 92 92 NW 16 26 29.88 1012 10 16 0.00 0.00
10:56 pm 22:56 Mostly Cloudy 26 -3.3 23 -5 88 88 NW 15 24 29.92 1013 10 16 0.00 0.00
11:56 pm 23:56 Mostly Clear 26 -3.3 22 -5.6 84 84 NW 17 28 29.94 1014 10 16 0.00 0.00

Powered by AerisWeather